AAL96 KSEA-KGPI

Flight info

Callsign AAL96
Flight time 1h 1m
Altitude 33000
Route MONTN2 SEA ZADON ZELAK ZIRAN ZAXBY OLIBY
Aircraft B77W/H-SDE1E2E3FGHIJ2J3J4J5M1RWXY/LB1D1

Departure

Time 2026-05-07 23:25
Airport Seattle–Tacoma International Airport (KSEA)

Arrival

Time 2026-05-08 00:26
Airport Glacier Park International Airport (KGPI)
Time Latitude Longitude Altitude Speed Heading
2026-05-07 22:56 47.44925 -122.30455 410 ft 0 kts 106°
2026-05-07 23:09 47.44925 -122.30458 410 ft 1 kts 106°
2026-05-07 23:10 47.44931 -122.30490 410 ft 3 kts 106°
2026-05-07 23:10 47.44934 -122.30511 410 ft 1 kts 69°
2026-05-07 23:10 47.44924 -122.30528 410 ft 3 kts 39°
2026-05-07 23:10 47.44919 -122.30534 410 ft 0 kts 39°
2026-05-07 23:11 47.44920 -122.30533 410 ft 0 kts 39°
2026-05-07 23:19 47.44931 -122.30530 410 ft 5 kts 359°
2026-05-07 23:19 47.44962 -122.30535 412 ft 3 kts 348°
2026-05-07 23:20 47.44974 -122.30539 412 ft 1 kts 347°
2026-05-07 23:20 47.45009 -122.30558 414 ft 9 kts 337°
2026-05-07 23:20 47.45083 -122.30605 418 ft 10 kts 339°
2026-05-07 23:20 47.45138 -122.30621 421 ft 5 kts 353°
2026-05-07 23:21 47.45163 -122.30625 423 ft 2 kts 356°
2026-05-07 23:21 47.45203 -122.30629 424 ft 10 kts 359°
2026-05-07 23:21 47.45272 -122.30629 427 ft 14 kts
2026-05-07 23:21 47.45395 -122.30627 432 ft 15 kts
2026-05-07 23:22 47.45491 -122.30626 436 ft 11 kts
2026-05-07 23:22 47.45559 -122.30626 439 ft 8 kts
2026-05-07 23:22 47.45647 -122.30623 442 ft 14 kts
2026-05-07 23:22 47.45740 -122.30621 443 ft 14 kts
2026-05-07 23:23 47.45840 -122.30618 445 ft 14 kts
2026-05-07 23:23 47.45934 -122.30617 445 ft 13 kts 356°
2026-05-07 23:23 47.46024 -122.30621 444 ft 14 kts
2026-05-07 23:23 47.46131 -122.30622 440 ft 16 kts
2026-05-07 23:24 47.46254 -122.30614 432 ft 19 kts
2026-05-07 23:24 47.46378 -122.30682 418 ft 20 kts 278°
2026-05-07 23:24 47.46273 -122.30769 421 ft 18 kts 181°
2026-05-07 23:24 47.46144 -122.30774 430 ft 34 kts 182°
2026-05-07 23:25 47.45549 -122.30787 435 ft 135 kts 178°
2026-05-07 23:25 47.44346 -122.30759 734 ft 198 kts 180°
2026-05-07 23:25 47.42970 -122.30673 1711 ft 201 kts 178°
2026-05-07 23:25 47.41594 -122.30607 2830 ft 203 kts 181°
2026-05-07 23:26 47.40210 -122.30661 3815 ft 203 kts 180°
2026-05-07 23:26 47.38790 -122.30618 4559 ft 212 kts 178°
2026-05-07 23:26 47.37188 -122.30591 4876 ft 243 kts 181°
2026-05-07 23:26 47.35528 -122.30712 5318 ft 239 kts 185°
2026-05-07 23:27 47.32315 -122.31369 6463 ft 228 kts 190°
2026-05-07 23:27 47.30777 -122.31346 7008 ft 220 kts 162°
2026-05-07 23:27 47.29516 -122.30165 7489 ft 220 kts 129°
2026-05-07 23:28 47.28869 -122.28145 7799 ft 224 kts 99°
2026-05-07 23:28 47.28711 -122.25841 8129 ft 228 kts 94°
2026-05-07 23:28 47.28614 -122.23524 8685 ft 223 kts 94°
2026-05-07 23:28 47.28529 -122.21308 9165 ft 216 kts 94°
2026-05-07 23:29 47.28445 -122.19064 9380 ft 230 kts 94°
2026-05-07 23:29 47.28350 -122.16612 9745 ft 243 kts 94°
2026-05-07 23:29 47.28250 -122.14101 10366 ft 252 kts 94°
2026-05-07 23:29 47.28140 -122.11504 10973 ft 264 kts 94°
2026-05-07 23:30 47.28017 -122.08759 11590 ft 277 kts 93°
2026-05-07 23:30 47.28191 -122.05920 12161 ft 289 kts 70°
2026-05-07 23:30 47.29235 -122.03334 12570 ft 305 kts 43°
2026-05-07 23:30 47.30933 -122.01273 13062 ft 324 kts 36°
2026-05-07 23:31 47.32778 -121.99269 13667 ft 341 kts 35°
2026-05-07 23:31 47.34730 -121.97164 14255 ft 357 kts 35°
2026-05-07 23:31 47.36780 -121.94952 14825 ft 374 kts 35°
2026-05-07 23:31 47.38906 -121.92656 15426 ft 390 kts 35°
2026-05-07 23:32 47.41125 -121.90256 16143 ft 401 kts 35°
2026-05-07 23:32 47.43395 -121.87798 16979 ft 408 kts 35°
2026-05-07 23:32 47.45683 -121.85319 17828 ft 414 kts 35°
2026-05-07 23:32 47.47989 -121.82816 18704 ft 420 kts 35°
2026-05-07 23:33 47.50327 -121.80175 19529 ft 427 kts 40°
2026-05-07 23:33 47.52410 -121.76987 20368 ft 434 kts 50°
2026-05-07 23:33 47.54071 -121.73334 21218 ft 435 kts 60°
2026-05-07 23:33 47.55308 -121.69218 21921 ft 444 kts 70°
2026-05-07 23:34 47.56049 -121.64768 22499 ft 455 kts 81°
2026-05-07 23:34 47.56233 -121.60081 23217 ft 462 kts 90°
2026-05-07 23:34 47.56141 -121.55319 23944 ft 468 kts 91°
2026-05-07 23:34 47.56033 -121.50487 24675 ft 473 kts 91°
2026-05-07 23:35 47.55934 -121.45664 25349 ft 479 kts 90°
2026-05-07 23:35 47.55839 -121.40700 25964 ft 487 kts 90°
2026-05-07 23:35 47.55746 -121.35649 26648 ft 492 kts 90°
2026-05-07 23:35 47.55656 -121.30580 27309 ft 497 kts 90°
2026-05-07 23:36 47.55566 -121.25466 27943 ft 503 kts 90°
2026-05-07 23:36 47.55476 -121.20327 28500 ft 510 kts 90°
2026-05-07 23:36 47.55383 -121.15058 29143 ft 514 kts 90°
2026-05-07 23:36 47.55288 -121.09759 29842 ft 517 kts 90°
2026-05-07 23:37 47.55193 -121.04528 30677 ft 516 kts 90°
2026-05-07 23:37 47.55094 -120.99235 31486 ft 515 kts 90°
2026-05-07 23:37 47.54994 -120.93964 32277 ft 513 kts 89°
2026-05-07 23:37 47.54893 -120.88709 32922 ft 514 kts 89°
2026-05-07 23:38 47.54790 -120.83459 33074 ft 520 kts 89°
2026-05-07 23:38 47.54682 -120.78078 33080 ft 523 kts 89°
2026-05-07 23:38 47.54457 -120.67229 33070 ft 536 kts 89°
2026-05-07 23:39 47.54218 -120.56276 33041 ft 533 kts 89°
2026-05-07 23:39 47.53967 -120.45257 32996 ft 534 kts 89°
2026-05-07 23:40 47.53760 -120.34391 32997 ft 527 kts 89°
2026-05-07 23:40 47.53606 -120.23563 32981 ft 527 kts 89°
2026-05-07 23:41 47.53439 -120.12788 32975 ft 527 kts 89°
2026-05-07 23:41 47.53260 -120.01990 32989 ft 528 kts 89°
2026-05-07 23:42 47.53068 -119.91159 32981 ft 527 kts 89°
2026-05-07 23:42 47.52867 -119.80396 32964 ft 528 kts 89°
2026-05-07 23:43 47.52654 -119.69525 32953 ft 536 kts 88°
2026-05-07 23:43 47.52543 -119.63986 32950 ft 548 kts 88°
2026-05-07 23:43 47.52425 -119.58340 32953 ft 549 kts 89°
2026-05-07 23:44 47.52180 -119.47086 32954 ft 547 kts 88°
2026-05-07 23:44 47.51925 -119.35878 32951 ft 546 kts 88°
2026-05-07 23:45 47.51660 -119.24674 32947 ft 546 kts 89°
2026-05-07 23:45 47.51386 -119.13521 32952 ft 546 kts 89°
2026-05-07 23:46 47.51100 -119.02352 32947 ft 546 kts 89°
2026-05-07 23:46 47.50802 -118.91122 32953 ft 545 kts 88°
2026-05-07 23:47 47.50495 -118.79951 32955 ft 546 kts 89°
2026-05-07 23:47 47.50178 -118.68829 32953 ft 545 kts 88°
2026-05-07 23:48 47.49848 -118.57604 32966 ft 548 kts 88°
2026-05-07 23:48 47.49507 -118.46399 32965 ft 547 kts 88°
2026-05-07 23:49 47.49154 -118.35198 32967 ft 548 kts 88°
2026-05-07 23:49 47.48790 -118.23924 32957 ft 549 kts 89°
2026-05-07 23:50 47.48415 -118.12724 32963 ft 548 kts 89°
2026-05-07 23:50 47.48028 -118.01457 32966 ft 549 kts 89°
2026-05-07 23:51 47.47634 -117.90308 32999 ft 548 kts 89°
2026-05-07 23:51 47.47227 -117.79099 33011 ft 548 kts 89°
2026-05-07 23:52 47.46819 -117.67859 33014 ft 546 kts 86°
2026-05-07 23:52 47.47615 -117.56928 33001 ft 532 kts 69°
2026-05-07 23:53 47.48725 -117.51693 32700 ft 529 kts 63°
2026-05-07 23:53 47.50001 -117.46607 32293 ft 524 kts 63°
2026-05-07 23:53 47.51260 -117.41624 31887 ft 518 kts 63°
2026-05-07 23:53 47.52501 -117.36669 31480 ft 513 kts 63°
2026-05-07 23:54 47.53724 -117.31756 31068 ft 509 kts 64°
2026-05-07 23:54 47.54960 -117.26778 30831 ft 527 kts 64°
2026-05-07 23:54 47.56244 -117.21587 30840 ft 545 kts 64°
2026-05-07 23:54 47.57548 -117.16267 30843 ft 554 kts 64°
2026-05-07 23:55 47.60080 -117.05815 30815 ft 524 kts 64°
2026-05-07 23:55 47.61288 -117.00800 30759 ft 508 kts 64°
2026-05-07 23:55 47.62455 -116.95954 30376 ft 499 kts 63°
2026-05-07 23:56 47.63617 -116.91135 29711 ft 499 kts 63°
2026-05-07 23:56 47.64775 -116.86323 29107 ft 498 kts 63°
2026-05-07 23:56 47.65927 -116.81516 28650 ft 493 kts 64°
2026-05-07 23:56 47.67061 -116.76769 28227 ft 486 kts 64°
2026-05-07 23:57 47.68178 -116.72081 27689 ft 481 kts 63°
2026-05-07 23:57 47.69281 -116.67444 26935 ft 475 kts 63°
2026-05-07 23:57 47.70355 -116.62919 26130 ft 470 kts 63°
2026-05-07 23:57 47.71430 -116.58379 25461 ft 461 kts 63°
2026-05-07 23:58 47.72483 -116.53924 24893 ft 457 kts 63°
2026-05-07 23:58 47.73523 -116.49517 24400 ft 451 kts 63°
2026-05-07 23:58 47.74547 -116.45167 23890 ft 446 kts 63°
2026-05-07 23:58 47.75567 -116.40826 23355 ft 442 kts 63°
2026-05-07 23:59 47.76564 -116.36578 22810 ft 438 kts 63°
2026-05-07 23:59 47.77558 -116.32333 22204 ft 436 kts 64°
2026-05-07 23:59 47.78545 -116.28108 21633 ft 433 kts 64°
2026-05-07 23:59 47.79528 -116.23893 21095 ft 428 kts 65°
2026-05-08 00:00 47.80496 -116.19732 20530 ft 425 kts 65°
2026-05-08 00:00 47.81443 -116.15653 20010 ft 421 kts 65°
2026-05-08 00:00 47.82401 -116.11522 19459 ft 417 kts 65°
2026-05-08 00:00 47.83329 -116.07510 18921 ft 414 kts 65°
2026-05-08 00:01 47.84262 -116.03468 18357 ft 412 kts 65°
2026-05-08 00:01 47.85186 -115.99462 17808 ft 409 kts 66°
2026-05-08 00:01 47.86099 -115.95492 17279 ft 405 kts 66°
2026-05-08 00:01 47.86995 -115.91593 16796 ft 402 kts 66°
2026-05-08 00:02 47.87892 -115.87677 16249 ft 399 kts 66°
2026-05-08 00:02 47.88785 -115.83775 15695 ft 397 kts 66°
2026-05-08 00:02 47.89674 -115.79883 15203 ft 394 kts 67°
2026-05-08 00:02 47.90546 -115.76057 14701 ft 390 kts 67°
2026-05-08 00:03 47.91413 -115.72245 14170 ft 388 kts 68°
2026-05-08 00:03 47.92266 -115.68491 13675 ft 385 kts 68°
2026-05-08 00:03 47.93116 -115.64744 13160 ft 382 kts 68°
2026-05-08 00:03 47.93956 -115.61032 12668 ft 380 kts 68°
2026-05-08 00:04 47.94796 -115.57314 11914 ft 374 kts 69°
2026-05-08 00:04 47.95607 -115.53716 11075 ft 370 kts 69°
2026-05-08 00:04 47.96424 -115.50086 10331 ft 364 kts 69°
2026-05-08 00:04 47.97208 -115.46597 10068 ft 343 kts 69°
2026-05-08 00:05 47.97926 -115.43391 10046 ft 319 kts 69°
2026-05-08 00:05 47.98611 -115.40337 10041 ft 304 kts 69°
2026-05-08 00:05 47.99262 -115.37431 10041 ft 287 kts 69°
2026-05-08 00:05 47.99869 -115.34711 10041 ft 263 kts 70°
2026-05-08 00:06 48.00423 -115.32228 9902 ft 249 kts 70°
2026-05-08 00:06 48.00967 -115.29799 9836 ft 239 kts 70°
2026-05-08 00:06 48.01473 -115.27522 9884 ft 230 kts 69°
2026-05-08 00:06 48.01982 -115.25240 9755 ft 234 kts 70°
2026-05-08 00:07 48.02504 -115.22890 9586 ft 238 kts 70°
2026-05-08 00:07 48.03024 -115.20549 9534 ft 236 kts 70°
2026-05-08 00:07 48.03528 -115.18272 9549 ft 230 kts 70°
2026-05-08 00:07 48.04045 -115.16015 9476 ft 229 kts 66°
2026-05-08 00:08 48.04700 -115.13829 9308 ft 238 kts 59°
2026-05-08 00:08 48.05509 -115.11772 9183 ft 219 kts 53°
2026-05-08 00:08 48.06410 -115.09984 8724 ft 235 kts 45°
2026-05-08 00:08 48.07603 -115.07971 8761 ft 256 kts 47°
2026-05-08 00:09 48.08699 -115.05965 9249 ft 243 kts 48°
2026-05-08 00:09 48.09752 -115.04000 9525 ft 247 kts 49°
2026-05-08 00:09 48.10822 -115.01988 9895 ft 248 kts 49°
2026-05-08 00:09 48.11896 -114.99966 10017 ft 249 kts 49°
2026-05-08 00:10 48.12984 -114.97914 10037 ft 253 kts 49°
2026-05-08 00:10 48.14063 -114.95879 10038 ft 252 kts 49°
2026-05-08 00:10 48.15157 -114.93815 10042 ft 252 kts 49°
2026-05-08 00:10 48.16241 -114.91766 10043 ft 252 kts 49°
2026-05-08 00:11 48.17329 -114.89709 10044 ft 252 kts 49°
2026-05-08 00:11 48.18416 -114.87652 10048 ft 251 kts 49°
2026-05-08 00:11 48.19508 -114.85585 10050 ft 252 kts 48°
2026-05-08 00:11 48.20601 -114.83514 10049 ft 252 kts 48°
2026-05-08 00:12 48.21685 -114.81460 10054 ft 253 kts 48°
2026-05-08 00:12 48.22773 -114.79397 10053 ft 253 kts 49°
2026-05-08 00:12 48.23863 -114.77324 10058 ft 254 kts 48°
2026-05-08 00:12 48.24952 -114.75255 10054 ft 253 kts 48°
2026-05-08 00:13 48.26047 -114.73171 10047 ft 252 kts 48°
2026-05-08 00:13 48.27133 -114.71104 10044 ft 252 kts 48°
2026-05-08 00:13 48.28210 -114.69053 10045 ft 253 kts 49°
2026-05-08 00:13 48.29299 -114.66978 10044 ft 252 kts 49°
2026-05-08 00:14 48.30386 -114.64902 10041 ft 253 kts 48°
2026-05-08 00:14 48.31480 -114.62814 10039 ft 252 kts 48°
2026-05-08 00:14 48.32545 -114.60777 10034 ft 249 kts 48°
2026-05-08 00:14 48.33614 -114.58734 10029 ft 246 kts 48°
2026-05-08 00:15 48.34652 -114.56744 10025 ft 240 kts 48°
2026-05-08 00:15 48.35674 -114.54789 10022 ft 239 kts 48°
2026-05-08 00:15 48.36707 -114.52810 10018 ft 239 kts 48°
2026-05-08 00:15 48.37746 -114.50842 9746 ft 243 kts 47°
2026-05-08 00:16 48.38786 -114.48881 9314 ft 238 kts 47°
2026-05-08 00:16 48.39801 -114.46962 8944 ft 233 kts 48°
2026-05-08 00:16 48.40818 -114.45039 8598 ft 233 kts 48°
2026-05-08 00:16 48.41689 -114.43005 8273 ft 233 kts 61°
2026-05-08 00:17 48.42322 -114.40775 8043 ft 230 kts 65°
2026-05-08 00:17 48.42916 -114.38533 8028 ft 234 kts 65°
2026-05-08 00:17 48.43518 -114.36285 8028 ft 232 kts 65°
2026-05-08 00:17 48.44075 -114.33976 7971 ft 236 kts 73°
2026-05-08 00:18 48.44360 -114.31535 7664 ft 240 kts 83°
2026-05-08 00:18 48.44349 -114.28994 6825 ft 248 kts 95°
2026-05-08 00:18 48.43982 -114.26513 6115 ft 247 kts 108°
2026-05-08 00:18 48.43300 -114.24206 5707 ft 230 kts 118°
2026-05-08 00:19 48.42542 -114.22221 5446 ft 212 kts 121°
2026-05-08 00:19 48.41721 -114.20471 5169 ft 198 kts 134°
2026-05-08 00:19 48.41284 -114.19872 5042 ft 193 kts 144°
2026-05-08 00:23 48.41233 -114.19813 5029 ft 192 kts 145°
2026-05-08 00:23 48.40109 -114.18968 4920 ft 179 kts 164°
2026-05-08 00:24 48.38869 -114.18679 4915 ft 182 kts 180°
2026-05-08 00:24 48.37623 -114.18958 4911 ft 177 kts 198°
2026-05-08 00:24 48.36505 -114.19739 4776 ft 181 kts 206°
2026-05-08 00:24 48.35459 -114.20801 4246 ft 182 kts 218°
2026-05-08 00:25 48.34482 -114.22013 3722 ft 185 kts 210°
2026-05-08 00:25 48.33433 -114.23042 3362 ft 172 kts 214°
2026-05-08 00:25 48.32537 -114.24008 3142 ft 145 kts 210°
2026-05-08 00:25 48.31715 -114.24849 3013 ft 140 kts 211°
2026-05-08 00:26 48.31004 -114.25575 2990 ft 107 kts 215°
2026-05-08 00:26 48.30476 -114.26135 2986 ft 79 kts 213°
2026-05-08 00:26 48.30052 -114.26559 2983 ft 65 kts 215°
2026-05-08 00:26 48.29742 -114.26897 2981 ft 41 kts 212°
2026-05-08 00:27 48.29597 -114.27036 2981 ft 8 kts 211°
2026-05-08 00:27 48.29589 -114.27045 2981 ft 0 kts 211°
2026-05-08 00:27 48.29575 -114.27049 2981 ft 7 kts 183°
2026-05-08 00:27 48.29507 -114.27007 2981 ft 3 kts 87°
2026-05-08 00:28 48.29508 -114.27002 2981 ft 1 kts 62°
2026-05-08 00:28 48.29573 -114.26928 2981 ft 7 kts 23°
2026-05-08 00:28 48.29623 -114.26875 2981 ft 18 kts 40°
2026-05-08 00:28 48.29705 -114.26775 2982 ft 6 kts 37°
2026-05-08 00:29 48.29748 -114.26725 2982 ft 4 kts 40°
2026-05-08 00:29 48.29796 -114.26663 2982 ft 5 kts 40°
2026-05-08 00:29 48.29884 -114.26561 2982 ft 31 kts 38°
2026-05-08 00:29 48.30055 -114.26373 2983 ft 29 kts 35°
2026-05-08 00:30 48.30212 -114.26203 2983 ft 27 kts 37°
2026-05-08 00:30 48.30356 -114.26072 2986 ft 20 kts 36°
2026-05-08 00:30 48.30462 -114.25954 2986 ft 17 kts 38°
2026-05-08 00:30 48.30570 -114.25841 2987 ft 19 kts 34°
2026-05-08 00:31 48.30683 -114.25723 2987 ft 21 kts 36°
2026-05-08 00:31 48.30798 -114.25610 2989 ft 17 kts 34°
2026-05-08 00:31 48.30816 -114.25534 2989 ft 2 kts 107°
2026-05-08 00:31 48.30799 -114.25494 2989 ft 5 kts 136°
2026-05-08 00:32 48.30775 -114.25455 2988 ft 3 kts 123°
2026-05-08 00:32 48.30766 -114.25430 2988 ft 1 kts 116°
2026-05-08 00:32 48.30757 -114.25397 2988 ft 1 kts 111°
2026-05-08 00:32 48.30757 -114.25395 2988 ft 0 kts 111°
2026-05-08 00:33 48.30756 -114.25392 2988 ft 0 kts 112°